Somerville, NJ

7:48 AM EDT on April 27, 2017 (GMT -0400)
Somerset

Weather History for KSMQ - January, 2014

Change the Weather History Date:

Monday, January 20, 2014

  Actual Average Record
Temperature  
Mean Temperature 36 °F -  
Max Temperature 45 °F 37 °F 62 °F (2006)
Min Temperature 28 °F 18 °F -4 °F (1948)
Degree Days  
Heating Degree Days 28    
Moisture  
Dew Point 24 °F    
Average Humidity 61    
Maximum Humidity 82    
Minimum Humidity 46    
Precipitation  
Precipitation 0.00 in - - ()
Sea Level Pressure  
Sea Level Pressure 29.70 in    
Wind  
Wind Speed 3 mph (WNW)    
Max Wind Speed 10 mph    
Max Gust Speed -    
Visibility 10 miles    
Events      
Averages and records for this station are not official NWS values.
T = Trace of Precipitation, MM = Missing Value Source: NWS Daily Summary

Daily Weather History Graph

Daily Weather History Graph

Search for Another Location

Airport or City:

Trip Planner

Search our weather history database for the weather conditions in past years. The results will help you decide how hot, cold, wet, or windy it might be!

Date:

Astronomy

Jan. 20, 2014 Rise Set
Actual Time 7:17 AM EST 5:02 PM EST
Civil Twilight 6:48 AM EST 5:31 PM EST
Nautical Twilight 6:14 AM EST 6:05 PM EST
Astronomical Twilight 5:42 AM EST 6:37 PM EST
Moon 9:36 PM EST (1/20) 9:14 AM EST (1/20)
Length of Visible Light 10h 43m
Length of Day
9h 44m
Waning Gibbous, 83% of the Moon is Illuminated
Jan 20
Waning Gibbous
Jan 24
Last Quarter
Jan 30
New
Feb 6
First Quarter
Feb 14
Full

Hourly Weather History & Observations

Time (EST) Temp. Windchill Dew Point Humidity Pressure Visibility Wind Dir Wind Speed Gust Speed Precip Events Conditions
12:53 AM 33.1 °F 30.0 °F 19.9 °F 59% 29.66 in 10.0 mi Variable 3.5 mph - N/A   Clear
1:53 AM 34.0 °F 31.0 °F 21.0 °F 59% 29.65 in 10.0 mi SW 3.5 mph - N/A   Clear
2:53 AM 32.0 °F - 21.0 °F 64% 29.65 in 10.0 mi Calm Calm - N/A   Clear
3:53 AM 28.9 °F - 21.9 °F 75% 29.65 in 10.0 mi Calm Calm - N/A   Clear
4:53 AM 28.9 °F - 23.0 °F 78% 29.65 in 10.0 mi Calm Calm - N/A   Clear
5:53 AM 30.0 °F 25.2 °F 21.9 °F 72% 29.63 in 10.0 mi South 4.6 mph - N/A   Clear
6:53 AM 32.0 °F - 23.0 °F 69% 29.65 in 10.0 mi Calm Calm - N/A   Clear
7:53 AM 30.9 °F - 23.0 °F 72% 29.65 in 10.0 mi Calm Calm - N/A   Clear
8:53 AM 30.9 °F 26.2 °F 26.1 °F 82% 29.64 in 10.0 mi SSE 4.6 mph - N/A   Overcast
9:53 AM 36.0 °F 32.1 °F 25.0 °F 64% 29.66 in 10.0 mi Variable 4.6 mph - N/A   Overcast
10:53 AM 39.0 °F - 25.0 °F 57% 29.64 in 10.0 mi Calm Calm - N/A   Overcast
11:53 AM 42.1 °F 38.4 °F 24.1 °F 49% 29.61 in 10.0 mi WNW 5.8 mph - N/A   Overcast
12:53 PM 43.0 °F 39.5 °F 24.1 °F 47% 29.60 in 10.0 mi Variable 5.8 mph - N/A   Overcast
1:53 PM 45.0 °F 40.6 °F 25.0 °F 46% 29.61 in 10.0 mi NW 8.1 mph - N/A   Overcast
2:53 PM 43.0 °F 40.3 °F 24.1 °F 47% 29.64 in 10.0 mi Variable 4.6 mph - N/A   Overcast
3:53 PM 43.0 °F - 26.1 °F 51% 29.68 in 10.0 mi Calm Calm - N/A   Overcast
4:53 PM 42.1 °F 37.1 °F 26.1 °F 53% 29.70 in 10.0 mi West 8.1 mph - N/A   Overcast
5:53 PM 39.9 °F 36.7 °F 26.1 °F 58% 29.74 in 10.0 mi West 4.6 mph - N/A   Scattered Clouds
6:53 PM 41.0 °F - 27.0 °F 57% 29.77 in 10.0 mi Calm Calm - N/A   Overcast
7:53 PM 39.9 °F 33.9 °F 28.0 °F 63% 29.79 in 10.0 mi WNW 9.2 mph - N/A   Overcast
8:53 PM 39.0 °F 35.7 °F 28.0 °F 65% 29.82 in 10.0 mi West 4.6 mph - N/A   Mostly Cloudy
9:53 PM 35.1 °F 30.1 °F 25.0 °F 67% 29.86 in 10.0 mi North 5.8 mph - N/A   Clear
10:53 PM 33.1 °F 28.7 °F 21.0 °F 61% 29.88 in 10.0 mi WNW 4.6 mph - N/A   Partly Cloudy
11:53 PM 32.0 °F 23.6 °F 19.0 °F 59% 29.89 in 10.0 mi North 10.4 mph - N/A   Clear